Theta_e
318 317 317 318 317 317 318 318 317 317 317 317 317 316 315 314 313 313 313 312 313 313 324 325 325 325 324 323 322 321 321 321 317 317 318 317 316 315 315 315 314 315 315 314
315 317 318 318 319 319 318 317 317 316 316 316 315 315 314 314 314 317 315 315 317 321 324 324 325 325 324 324 323 323 322 320 319 318 320 319 319 317 317 316 315 316 314 317
318 318 321 319 318 318 318 318 318 317 316 315 316 316 316 316 319 320 319 318 318 320 321 322 323 324 324 324 324 323 322 320 320 320 321 319 318 317 316 316 316 315 314 316
320 320 321 319 319 317 318 317 318 317 316 316 317 316 316 316 319 319 320 319 318 317 317 317 319 321 322 322 324 323 322 321 321 321 321 319 318 319 317 317 316 314 314 316
321 321 320 319 319 318 318 317 317 318 317 313 314 315 316 317 319 317 318 320 318 317 317 317 318 321 320 321 321 322 322 322 323 322 320 319 319 318 317 316 315 314 317 318
320 318 318 319 319 318 317 315 314 313 313 316 318 317 314 319 319 317 317 319 320 317 316 316 317 318 320 320 321 321 320 321 321 319 321 321 320 318 317 315 315 316 318 317
319 319 319 318 318 316 314 312 314 315 314 315 316 317 314 318 318 317 318 318 319 317 317 317 317 317 318 318 317 317 318 318 318 319 320 322 320 318 315 315 315 316 316 316
321 321 319 317 318 317 316 313 313 317 317 317 316 318 315 317 315 316 316 318 319 318 316 317 316 317 316 316 316 316 316 316 316 318 318 318 320 315 315 315 315 315 317 316
320 321 317 315 317 317 316 314 313 315 317 319 316 317 317 316 315 315 317 316 314 316 315 316 317 316 315 315 316 315 315 315 316 316 316 320 316 315 315 315 316 317 314 314
318 317 316 318 317 316 316 315 314 314 319 321 319 322 320 317 315 313 314 316 314 313 313 312 313 313 314 314 315 316 315 314 314 315 316 316 316 316 317 316 314 313 311 311
317 314 315 318 317 317 315 314 315 314 317 321 323 318 316 316 313 312 312 315 313 313 313 312 312 313 312 311 312 314 312 311 311 311 312 312 312 312 312 311 310 310 309 308
317 316 319 320 315 315 316 317 314 318 317 317 320 316 314 315 312 313 313 312 309 309 308 311 310 311 311 310 311 311 310 310 310 310 309 309 309 309 309 309 309 308 307 306
314 310 309 313 312 315 318 317 315 313 312 315 314 315 315 314 313 312 311 309 308 308 307 307 308 308 309 309 310 309 309 309 309 309 308 308 307 307 307 307 307 306 306 305
314 312 312 314 315 316 318 317 315 316 319 319 317 320 316 315 315 313 311 309 307 307 308 307 305 306 307 308 308 308 308 308 307 307 307 307 307 306 305 305 305 305 305 305
312 315 316 317 319 318 318 317 318 318 318 317 315 318 315 314 312 311 309 309 309 309 308 307 307 307 307 306 306 307 307 307 307 306 306 306 305 305 305 305 305 305 304 304
312 315 318 318 319 319 318 319 318 318 318 317 317 316 314 311 310 311 311 311 311 310 308 308 307 307 306 305 306 306 306 306 306 305 304 304 305 305 305 305 305 305 303 304
314 315 317 319 318 317 313 319 318 318 317 317 315 314 312 312 313 312 311 311 310 308 309 307 306 304 304 304 304 304 304 304 303 303 304 304 304 305 305 305 305 303 303 303
313 316 318 318 315 318 315 316 316 317 316 314 314 313 312 312 312 310 310 309 310 309 306 304 303 302 302 302 302 302 302 303 303 304 304 303 305 305 305 304 303 303 302 303
313 320 318 314 315 316 318 316 313 311 315 314 312 312 313 312 310 311 307 309 308 304 304 303 302 301 301 301 302 301 301 301 302 302 302 303 303 303 302 303 303 302 302 304
314 314 314 313 316 314 315 316 314 312 308 312 312 312 311 310 312 311 309 307 304 303 302 301 301 301 301 301 301 301 301 301 301 301 301 302 302 302 302 302 302 302 304 304
311 310 313 312 311 313 314 314 312 311 308 310 311 310 309 311 311 309 306 304 302 301 300 301 301 301 301 301 300 300 300 301 301 301 302 302 302 302 302 302 303 303 303 305
312 308 308 308 313 312 313 312 314 311 308 309 309 308 308 307 306 305 303 302 301 300 301 301 301 301 300 300 300 300 300 300 300 301 301 301 301 301 302 302 302 304 306 309
309 309 308 313 310 310 312 312 310 308 308 309 308 307 306 305 304 303 302 301 300 300 301 301 301 301 300 300 300 300 300 300 300 300 301 301 301 302 302 303 304 306 310 310
308 311 310 311 312 312 310 310 309 309 309 309 307 306 304 302 302 301 301 301 300 301 301 301 301 301 301 301 301 301 300 300 300 301 301 301 302 303 305 307 308 309 309 308
308 312 313 311 310 310 309 309 308 309 308 307 305 305 303 300 301 301 301 300 300 301 301 301 301 301 301 302 302 303 302 301 301 301 302 302 303 306 305 306 309 309 309 309
310 311 309 309 309 308 308 308 310 308 307 305 304 303 302 300 300 301 301 300 301 301 301 300 300 301 302 303 306 307 305 304 303 302 302 303 305 306 306 306 306 307 308 308
Wind_Speed
5 4 4 5 5 4 3 1 3 4 6 6 1 6 7 9 6 9 11 9 9 7 16 30 33 33 28 24 22 21 19 15 12 9 8 12 14 14 16 19 23 23 29 29
8 1 5 8 2 4 7 5 4 4 6 4 8 7 6 7 12 21 17 16 8 8 17 22 26 30 30 27 22 20 18 14 11 9 7 7 12 15 17 19 21 25 30 29
2 6 10 7 5 7 3 5 2 3 4 5 6 6 9 10 16 22 24 23 21 12 9 4 6 18 24 26 24 22 18 13 9 7 4 5 11 17 21 25 25 27 29 28
3 7 11 8 0 3 3 4 2 6 6 2 3 5 6 5 16 18 16 18 20 20 15 14 20 17 9 4 12 12 13 11 7 4 2 5 8 8 14 19 23 26 26 26
6 7 9 7 4 2 1 5 4 2 3 3 7 4 5 7 11 9 7 10 10 10 12 12 17 23 24 21 15 11 9 10 9 5 6 9 10 9 11 14 20 24 23 23
4 3 8 4 5 5 3 7 8 6 3 3 2 3 5 3 4 2 4 7 8 7 6 8 15 19 17 15 14 11 8 3 3 9 13 15 14 11 11 14 18 20 20 21
5 3 1 10 7 8 10 8 4 5 5 4 4 3 5 5 3 3 5 6 5 5 6 7 8 11 10 7 5 4 11 14 25 24 19 21 17 13 11 12 15 17 19 20
3 7 4 7 3 3 2 6 4 4 3 9 4 4 5 2 6 4 5 5 4 3 3 3 2 5 1 4 7 15 14 15 21 28 28 23 18 16 12 13 15 16 14 16
2 4 7 7 4 2 6 4 4 3 3 2 4 2 4 10 8 7 6 7 7 6 5 2 4 1 5 11 15 16 17 24 25 29 30 22 18 15 15 15 14 13 12 16
0 3 4 6 7 4 2 3 5 4 5 6 4 2 4 10 8 9 8 5 5 7 8 8 9 9 12 18 21 19 21 23 21 15 13 14 13 13 10 8 11 14 17 20
2 4 6 5 3 3 7 6 4 2 3 1 4 4 5 5 5 7 8 5 7 7 7 8 14 20 22 25 23 17 11 9 9 8 7 8 9 9 11 14 17 20 22 26
0 4 1 5 9 3 3 2 3 2 6 4 3 5 6 9 7 11 8 9 9 8 8 7 11 12 16 19 13 12 10 15 15 14 15 15 17 19 20 21 23 23 26 29
3 2 4 8 7 7 6 8 8 3 3 4 3 5 6 6 6 6 8 9 7 8 10 10 13 14 16 20 17 20 18 17 15 16 19 23 25 25 26 29 30 28 27 26
7 3 6 6 8 4 6 10 9 4 2 3 6 7 8 8 10 9 9 9 9 10 11 10 7 11 19 23 28 30 28 26 26 22 21 21 22 26 30 31 29 27 27 27
4 3 5 6 7 7 10 10 6 3 1 3 5 6 6 6 9 9 8 9 12 16 11 7 10 16 25 27 32 28 27 29 27 25 28 29 30 30 30 30 27 27 24 26
2 3 2 4 6 8 12 5 2 2 3 5 6 12 3 6 8 9 14 16 19 17 10 17 19 23 26 31 27 24 26 29 30 29 29 29 28 29 29 26 25 26 24 25
1 2 2 4 5 7 4 1 2 3 5 6 7 6 4 15 14 14 14 16 17 11 19 22 21 28 30 27 30 29 26 29 29 28 28 24 26 28 27 24 24 24 25 28
4 3 1 4 4 2 3 2 3 4 9 6 4 9 12 13 16 11 13 15 11 19 18 19 25 30 30 32 32 32 30 27 23 25 22 23 23 20 16 17 22 24 25 25
6 3 3 1 3 6 3 4 3 2 13 4 5 14 15 13 13 13 9 7 15 15 22 27 30 31 32 32 29 25 28 27 24 22 23 22 19 17 21 18 19 20 24 26
6 4 4 2 1 4 3 5 8 1 4 4 13 13 12 12 14 17 15 15 17 26 26 28 30 32 31 30 29 25 26 25 23 21 22 20 17 19 20 21 21 22 23 28
4 3 2 0 3 5 4 5 4 3 6 11 5 9 11 9 9 17 18 18 25 27 28 31 30 28 30 30 27 26 26 23 24 22 19 19 19 19 20 20 19 23 26 24
3 2 2 1 2 5 4 4 2 7 7 8 8 7 9 10 14 17 19 18 23 25 30 31 27 27 31 30 24 24 24 25 21 20 18 17 16 16 15 18 22 21 22 17
2 5 4 7 5 4 5 7 8 6 7 7 6 9 7 10 16 18 18 18 20 27 29 30 29 30 31 29 23 22 27 22 19 16 16 15 16 16 16 19 20 18 11 7
4 3 2 3 2 4 7 6 6 5 5 8 8 6 6 11 15 17 16 17 18 27 27 30 29 27 28 30 26 23 25 21 16 14 14 14 14 17 19 19 19 14 7 8
5 3 3 4 6 6 7 8 5 6 6 7 6 7 9 8 15 14 17 18 24 27 30 29 27 26 28 30 28 24 21 16 13 11 10 11 14 15 3 9 10 7 6 8
4 6 4 5 8 6 8 8 4 5 5 5 5 10 11 10 13 18 15 25 26 27 30 28 29 28 29 30 27 16 11 10 11 7 7 8 14 2 4 9 14 10 9 7
Wind_Direction
312 71 272 252 220 164 173 218 294 289 357 22 179 232 272 306 331 315 291 268 251 189 167 162 159 156 155 157 151 145 136 132 107 74 25 359 357 350 341 341 345 352 355 360
11 340 339 295 67 47 33 54 355 312 350 46 330 317 306 326 356 349 321 302 194 162 161 166 166 166 168 163 157 148 146 127 100 96 67 14 349 342 340 341 341 348 350 356
179 260 341 15 4 62 53 80 342 247 327 342 356 342 357 22 40 36 34 39 36 29 26 31 177 179 175 172 166 162 150 123 124 107 54 344 347 338 342 341 341 344 348 353
309 319 341 339 310 109 27 297 330 341 38 324 18 287 333 34 34 39 33 36 40 37 41 33 27 27 19 7 175 163 127 126 136 126 281 306 324 311 329 331 332 338 344 351
277 309 324 3 3 7 279 30 0 300 339 53 341 67 271 2 22 9 26 66 64 62 61 51 51 51 45 60 72 90 127 147 173 206 251 255 260 265 298 315 320 334 339 343
21 338 50 4 340 30 322 17 28 24 61 50 214 104 325 5 280 302 24 43 56 90 85 83 88 70 60 48 46 29 21 18 239 263 262 253 249 256 280 307 315 331 332 335
347 359 315 25 7 360 42 43 341 358 356 234 307 39 236 232 237 76 53 56 34 19 30 35 45 66 70 61 49 333 278 291 292 279 272 265 250 255 275 289 307 320 322 332
50 330 29 357 357 298 355 124 148 286 245 283 292 224 187 333 65 58 63 59 60 39 172 107 144 190 173 238 271 286 263 263 269 267 267 274 250 266 275 289 299 302 314 325
63 280 330 3 344 73 322 7 216 226 235 325 212 7 216 50 36 24 45 42 3 358 335 81 217 319 274 264 260 273 287 275 274 280 272 264 250 267 281 287 288 295 314 325
193 328 285 321 3 32 98 279 7 6 332 306 342 340 264 1 351 350 343 343 348 341 344 337 338 335 335 339 327 306 295 285 294 322 300 279 280 281 288 292 298 309 316 318
76 115 294 9 18 26 340 8 7 135 156 253 289 259 16 25 301 332 329 333 346 336 320 314 324 339 349 349 342 337 4 15 8 13 355 341 332 320 308 303 305 310 314 316
174 130 298 267 295 221 239 263 149 138 284 239 204 258 59 40 18 15 355 353 336 332 318 293 305 317 326 334 346 336 341 329 325 319 312 308 306 303 302 304 306 309 311 311
186 13 359 348 351 356 355 336 326 245 90 228 172 263 28 5 19 347 317 312 310 312 307 304 309 316 323 318 299 301 294 297 293 290 293 294 296 297 298 300 299 302 303 304
84 124 152 208 232 257 296 314 309 133 141 235 240 288 297 339 329 300 304 306 303 295 288 295 295 303 309 300 299 290 295 299 299 291 285 281 287 292 295 292 292 296 298 299
98 195 200 241 259 282 300 311 38 22 190 233 270 255 277 291 280 278 280 288 294 307 294 288 299 299 304 305 299 287 288 297 291 292 294 290 292 292 291 287 291 289 289 293
32 269 226 275 274 284 296 62 348 18 342 280 292 308 232 288 289 304 308 306 306 307 301 306 309 305 304 304 299 293 292 288 293 291 287 283 284 286 285 282 286 284 290 291
240 161 48 258 290 315 334 229 69 298 288 278 292 290 294 322 317 308 304 300 303 297 310 309 311 309 307 306 303 294 289 290 284 282 280 276 282 274 274 279 279 282 287 294
182 115 41 267 355 267 222 69 283 244 267 297 339 316 313 303 301 305 287 286 297 308 308 306 306 304 307 306 301 294 290 283 283 283 282 285 277 269 274 279 278 281 286 285
168 122 260 213 214 276 98 334 321 229 305 158 313 324 314 307 298 301 269 294 307 303 306 305 308 306 303 302 305 315 304 295 291 285 283 278 278 279 283 282 278 279 279 278
75 91 139 20 301 275 240 264 268 184 296 262 332 311 309 318 317 316 332 315 309 313 311 312 306 305 301 301 303 300 295 290 284 284 283 277 277 276 276 278 274 277 274 282
346 7 89 276 256 284 294 283 319 43 255 301 282 275 287 292 279 299 309 311 316 315 314 311 307 302 301 301 299 293 292 286 287 286 285 281 279 272 272 275 270 272 279 280
192 139 243 42 277 298 6 10 122 230 275 265 277 269 280 281 297 302 310 313 317 316 315 313 309 305 303 301 296 286 286 288 290 289 287 283 279 276 272 270 273 273 276 274
344 175 205 177 222 232 246 226 240 232 241 282 280 279 277 293 303 310 312 316 315 318 313 314 311 306 304 301 294 282 285 290 291 289 288 286 291 287 282 274 271 274 269 191
283 151 166 43 261 265 289 269 258 294 282 275 272 289 291 287 306 310 315 317 318 315 315 314 312 308 305 305 299 282 283 285 283 280 285 293 293 301 303 290 267 248 167 162
205 121 196 253 277 307 286 262 283 284 289 306 322 288 277 285 306 311 316 318 316 314 316 317 313 309 305 306 299 292 290 282 269 268 279 289 298 307 7 75 81 96 129 169
187 191 161 231 231 201 254 261 262 270 290 318 318 319 311 292 306 315 314 319 313 317 319 318 316 315 313 312 307 312 301 290 256 254 270 287 301 194 89 81 82 87 103 113